Location: Unspecified
(0.0000°N, 0.0000°E)
Time: 22:00:16
(UTC+01:00)

JASON 3 - Pass Details

Date: 11 October 2020
Orbit: 1332 x 1343 km, 66.0° (Epoch: 27 October)

Event Time Altitude Azimuth Distance (km) Brightness Sun altitude
Rises 21:05:54 0° 331° (NNW) 4,344 ? -19.7°
Reaches altitude 10° 21:08:47 10° 327° (NNW) 3,372 ? -20.4°
Maximum altitude 21:16:46 58° 250° (WSW) 1,529 ? -22.4°
Drops below altitude 10° 21:24:46 10° 173° (S) 3,373 ? -24.3°
Sets 21:27:40 0° 168° (SSE) 4,346 ? -25.1°
